When you browse on this site, cookies collect data to enhance your experience and personalize the content and advertising you see.
Visit our Privacy Policy to learn more. By continuing to use the site, you agree to this use of cookies and data.
  • In Romania
  • List of Countries
  • For 7 days
  • Water Temperature
  • Satellite Maps
  • Weather Map
  • Weather Widgets
  • user-avatar
    Login

    Hourly Weather Ashtarak

    Today, 24 March, Sunday

    Time Temperature Precipitation Wind Pressure Humidity
    00:00 +3°C° 0.1 mm 2 mps 652 mmHg 58%
    01:00 +3°C° 0.1 mm 2 mps 652 mmHg 61%
    02:00 +3°C° 0.1 mm 2 mps 652 mmHg 65%
    03:00 +3°C° 0 mm 3 mps 651 mmHg 65%
    04:00 +2°C° 0.4 mm 3 mps 651 mmHg 67%
    05:00 +2°C° 0.4 mm 3 mps 651 mmHg 69%
    06:00 +3°C° 0.4 mm 2 mps 651 mmHg 71%
    07:00 +3°C° 0.3 mm 3 mps 651 mmHg 68%
    08:00 +4°C° 0.3 mm 3 mps 651 mmHg 65%
    09:00 +5°C° 0.3 mm 3 mps 651 mmHg 62%
    10:00 +5°C° 0.3 mm 3 mps 651 mmHg 61%
    11:00 +7°C° 0.3 mm 3 mps 651 mmHg 59%
    12:00 +8°C° 0.3 mm 2 mps 651 mmHg 58%
    13:00 +8°C° 0.4 mm 3 mps 651 mmHg 59%
    14:00 +7°C° 0.4 mm 3 mps 651 mmHg 61%
    15:00 +7°C° 0.4 mm 3 mps 650 mmHg 62%
    16:00 +5°C° 0.7 mm 3 mps 651 mmHg 64%
    17:00 +4°C° 0.7 mm 3 mps 651 mmHg 67%
    18:00 +4°C° 0.7 mm 2 mps 651 mmHg 70%
    19:00 +3°C° 0.6 mm 3 mps 651 mmHg 70%
    20:00 +2°C° 0.6 mm 3 mps 652 mmHg 70%
    21:00 +2°C° 0.6 mm 3 mps 652 mmHg 70%
    22:00 +1°C° 0.2 mm 3 mps 652 mmHg 70%
    23:00 +1°C° 0.2 mm 3 mps 652 mmHg 69%

    Tomorrow, 25 March, Monday

    Time Temperature Precipitation Wind Pressure Humidity
    00:00 +2°C° 0.2 mm 2 mps 652 mmHg 69%
    01:00 0°C° 0 mm 3 mps 652 mmHg 69%
    02:00 0°C° 0 mm 3 mps 652 mmHg 69%
    03:00 0°C° 0 mm 3 mps 652 mmHg 68%
    04:00 0°C° 0 mm 3 mps 652 mmHg 68%
    05:00 0°C° 0 mm 3 mps 652 mmHg 68%
    06:00 -1°C° 0 mm 4 mps 652 mmHg 68%
    07:00 +1°C° 0 mm 3 mps 652 mmHg 66%
    08:00 +2°C° 0 mm 3 mps 652 mmHg 64%
    09:00 +3°C° 0 mm 3 mps 651 mmHg 62%
    10:00 +4°C° 0 mm 3 mps 651 mmHg 60%
    11:00 +5°C° 0 mm 3 mps 651 mmHg 59%
    12:00 +8°C° 0 mm 3 mps 651 mmHg 57%
    13:00 +8°C° 0.2 mm 3 mps 650 mmHg 57%
    14:00 +7°C° 0.2 mm 4 mps 650 mmHg 58%
    15:00 +6°C° 0.2 mm 4 mps 650 mmHg 58%
    16:00 +6°C° 0.3 mm 4 mps 651 mmHg 59%
    17:00 +5°C° 0.3 mm 3 mps 651 mmHg 61%
    18:00 +5°C° 0.3 mm 3 mps 651 mmHg 62%
    19:00 +4°C° 0.2 mm 3 mps 652 mmHg 63%
    20:00 +4°C° 0.2 mm 3 mps 652 mmHg 64%
    21:00 +3°C° 0.2 mm 3 mps 653 mmHg 65%
    22:00 +4°C° 0.2 mm 2 mps 653 mmHg 66%
    23:00 +4°C° 0.2 mm 2 mps 653 mmHg 67%

    Day after tomorrow, 26 March, Tuesday

    Time Temperature Precipitation Wind Pressure Humidity
    00:00 +3°C° 0.2 mm 2 mps 653 mmHg 68%
    01:00 +3°C° 0.2 mm 2 mps 653 mmHg 68%
    02:00 +3°C° 0.2 mm 2 mps 653 mmHg 69%
    03:00 +3°C° 0.2 mm 2 mps 653 mmHg 69%
    04:00 +3°C° 0.2 mm 2 mps 654 mmHg 70%
    05:00 +3°C° 0.2 mm 2 mps 654 mmHg 70%
    06:00 +4°C° 0.2 mm 1 mps 654 mmHg 70%
    07:00 +4°C° 0.2 mm 1 mps 654 mmHg 68%
    08:00 +5°C° 0.2 mm 1 mps 655 mmHg 66%
    09:00 +5°C° 0.2 mm 0 mps 655 mmHg 64%
    10:00 +7°C° 0.2 mm 1 mps 655 mmHg 64%
    11:00 +8°C° 0.2 mm 1 mps 655 mmHg 63%
    12:00 +8°C° 0.2 mm 1 mps 655 mmHg 62%
    13:00 +9°C° 0.1 mm 1 mps 654 mmHg 61%
    14:00 +9°C° 0.1 mm 1 mps 654 mmHg 60%
    15:00 +10°C° 0.1 mm 1 mps 654 mmHg 59%
    16:00 +10°C° 0.1 mm 1 mps 654 mmHg 59%
    17:00 +9°C° 0.1 mm 1 mps 654 mmHg 59%
    18:00 +9°C° 0.1 mm 1 mps 654 mmHg 59%
    19:00 +8°C° 0.1 mm 1 mps 654 mmHg 61%
    20:00 +8°C° 0.1 mm 1 mps 655 mmHg 63%
    21:00 +7°C° 0.1 mm 1 mps 655 mmHg 65%
    22:00 +6°C° 0.1 mm 1 mps 655 mmHg 66%
    23:00 +6°C° 0.1 mm 1 mps 654 mmHg 67%

    27 March, Wednesday

    Time Temperature Precipitation Wind Pressure Humidity
    00:00 +5°C° 0.1 mm 1 mps 654 mmHg 68%
    01:00 +5°C° 0 mm 1 mps 654 mmHg 69%
    02:00 +4°C° 0 mm 1 mps 654 mmHg 69%
    03:00 +4°C° 0 mm 1 mps 654 mmHg 69%
    04:00 +4°C° 0 mm 1 mps 654 mmHg 69%
    05:00 +4°C° 0 mm 1 mps 654 mmHg 69%
    06:00 +3°C° 0 mm 1 mps 654 mmHg 69%
    07:00 +5°C° 0.1 mm 1 mps 654 mmHg 67%
    08:00 +6°C° 0.1 mm 1 mps 654 mmHg 65%
    09:00 +6°C° 0.1 mm 2 mps 655 mmHg 62%
    10:00 +7°C° 0.1 mm 2 mps 655 mmHg 61%
    11:00 +8°C° 0.1 mm 2 mps 654 mmHg 59%
    12:00 +9°C° 0.1 mm 2 mps 654 mmHg 58%
    13:00 +9°C° 0 mm 2 mps 654 mmHg 56%
    14:00 +10°C° 0 mm 2 mps 654 mmHg 55%
    15:00 +10°C° 0 mm 2 mps 654 mmHg 53%
    16:00 +10°C° 0.1 mm 2 mps 654 mmHg 54%
    17:00 +9°C° 0.1 mm 2 mps 655 mmHg 55%
    18:00 +9°C° 0.1 mm 1 mps 655 mmHg 55%
    19:00 +9°C° 0.2 mm 1 mps 655 mmHg 57%
    20:00 +8°C° 0.2 mm 1 mps 656 mmHg 58%
    21:00 +8°C° 0.2 mm 1 mps 656 mmHg 60%
    22:00 +7°C° 0.1 mm 1 mps 656 mmHg 61%
    23:00 +7°C° 0.1 mm 1 mps 656 mmHg 63%

    28 March, Thursday

    Time Temperature Precipitation Wind Pressure Humidity
    00:00 +5°C° 0.1 mm 0 mps 656 mmHg 64%
    01:00 +5°C° 0.1 mm 0 mps 656 mmHg 65%
    02:00 +4°C° 0.1 mm 0 mps 656 mmHg 66%
    03:00 +4°C° 0.1 mm 0 mps 656 mmHg 67%
    04:00 +4°C° 0.1 mm 0 mps 656 mmHg 67%
    05:00 +5°C° 0.1 mm 1 mps 656 mmHg 67%
    06:00 +4°C° 0.1 mm 1 mps 656 mmHg 67%
    07:00 +5°C° 0.2 mm 1 mps 656 mmHg 64%
    08:00 +6°C° 0.2 mm 1 mps 657 mmHg 61%
    09:00 +7°C° 0.2 mm 1 mps 657 mmHg 58%
    10:00 +8°C° 0.3 mm 1 mps 657 mmHg 58%
    11:00 +8°C° 0.3 mm 1 mps 657 mmHg 58%
    12:00 +8°C° 0.3 mm 1 mps 657 mmHg 58%
    13:00 +8°C° 0.4 mm 1 mps 656 mmHg 58%
    14:00 +8°C° 0.4 mm 1 mps 656 mmHg 59%
    15:00 +8°C° 0.4 mm 1 mps 656 mmHg 59%
    16:00 +8°C° 0.3 mm 1 mps 656 mmHg 61%
    17:00 +8°C° 0.3 mm 1 mps 656 mmHg 62%
    18:00 +7°C° 0.3 mm 1 mps 657 mmHg 63%
    19:00 +7°C° 0.3 mm 1 mps 657 mmHg 65%
    20:00 +6°C° 0.3 mm 1 mps 657 mmHg 67%
    21:00 +6°C° 0.3 mm 1 mps 658 mmHg 69%
    22:00 +6°C° 0.4 mm 1 mps 658 mmHg 70%
    23:00 +5°C° 0.4 mm 1 mps 658 mmHg 71%

    29 March, Friday

    Time Temperature Precipitation Wind Pressure Humidity
    00:00 +5°C° 0.4 mm 1 mps 658 mmHg 72%
    01:00 +5°C° 0.3 mm 1 mps 658 mmHg 72%
    02:00 +4°C° 0.3 mm 1 mps 658 mmHg 72%
    03:00 +4°C° 0.3 mm 1 mps 658 mmHg 73%
    04:00 +4°C° 0.1 mm 1 mps 658 mmHg 73%
    05:00 +3°C° 0.1 mm 1 mps 658 mmHg 73%
    06:00 +3°C° 0.1 mm 1 mps 658 mmHg 73%
    07:00 +4°C° 0.1 mm 1 mps 659 mmHg 68%
    08:00 +5°C° 0.1 mm 1 mps 659 mmHg 64%
    09:00 +6°C° 0.1 mm 1 mps 659 mmHg 59%
    10:00 +7°C° 0.1 mm 1 mps 659 mmHg 57%
    11:00 +7°C° 0.1 mm 1 mps 659 mmHg 54%
    12:00 +8°C° 0.1 mm 1 mps 659 mmHg 52%
    13:00 +7°C° 0.1 mm 2 mps 658 mmHg 51%
    14:00 +8°C° 0.1 mm 2 mps 658 mmHg 49%
    15:00 +8°C° 0.1 mm 2 mps 658 mmHg 48%
    16:00 +8°C° 0.2 mm 2 mps 657 mmHg 50%
    17:00 +8°C° 0.2 mm 1 mps 657 mmHg 51%
    18:00 +8°C° 0.2 mm 1 mps 657 mmHg 53%
    19:00 +7°C° 0.1 mm 1 mps 657 mmHg 54%
    20:00 +5°C° 0.1 mm 2 mps 658 mmHg 56%
    21:00 +5°C° 0.1 mm 2 mps 658 mmHg 58%
    22:00 +4°C° 0.2 mm 2 mps 657 mmHg 58%
    23:00 +5°C° 0.2 mm 1 mps 657 mmHg 59%
    Show more